User: anonymous   Login
Location: Asheville, NC
(35.6000°N, 82.5500°W)
Time: 12:11:22
(UTC-04:00)
Language:

NO-84 - Orbit

View from above orbital plane
View from above orbital plane
View from above satellite
View from above satellite

Ground track
Ground track

The orbit data is extracted from the following two-line orbital elements,

1 40654U 15025D   18165.19261299  .00009100  00000-0  14627-3 0 03269
2 40654 054.9919 049.8500 0161615 101.7289 260.1917 15.40514878055382
Epoch (UTC): 14 June 2018 04:37:21
Eccentricity: 0.0161615
inclination: 54.9919°
perigee height: 334 km
apogee height: 555 km
right ascension of ascending node: 49.8500°
argument of perigee: 101.7289°
revolutions per day: 15.40514878
mean anomaly at epoch: 260.1917°
orbit number at epoch: 5538

The dashed part of the orbit path shows where the satellite is in the earth's shadow,  

DLR